Location: Cranbrook Institute of Science
(42.5830°N, 83.2450°W)
Time: 15:44:48
(UTC-04:00)

Daily predictions for brighter satellites

Satellite Brightness Start Highest point End
(mag) Time Altitude Azimuth Time Altitude Azimuth Time Altitude Azimuth
Cosmos 1741 Rocket 4.1 20:42:46 10° NNW 20:47:58 60° ENE 20:53:10 10° SSE
Cosmos 1536 Rocket 3.7 20:46:36 10° N 20:50:52 56° E 20:55:08 10° SSE
Cosmos 2322 Rocket 2.2 20:47:16 10° SSW 20:52:56 76° ESE 20:58:39 10° NNE
Lacrosse 5 1.9 20:48:38 10° SSW 20:53:36 58° SE 20:58:35 10° NE
Atlas Centaur 2 4.2 20:47:47 10° WSW 20:54:55 30° SSW 21:01:32 10° SE
ATLAS 2AS CENTAUR R/B 3.1 20:51:59 10° SSW 20:59:27 59° ESE 21:07:23 10° NE
Helios 1B rocket 3.9 21:02:33 10° NE 21:05:18 17° E 21:08:02 10° SE
SL-16 R/B 2.3 21:00:55 10° SSW 21:06:35 85° WNW 21:12:18 10° NNE
NOSS 2-3 (E) 3.9 21:05:14 10° SW 21:09:55 88° NW 21:15:25 10° NE
Meteor 1-11 Rocket 3.8 21:08:31 10° S 21:14:20 87° E 21:20:04 10° N
Cosmos 1110 Rocket 4.3 21:11:22 10° S 21:16:13 43° ESE 21:21:07 10° NNE
Delta 2 Rocket 4.4 21:16:37 10° SW 21:20:00 29° S 21:22:34 16° ESE
Cosmos 2322 4.1 21:14:51 10° S 21:20:06 41° ESE 21:25:24 10° NE
SeaSat 1 2.7 21:17:09 10° NE 21:21:52 43° ESE 21:26:33 10° S
Cosmos 2360 Rocket 2.3 21:18:47 10° S 21:24:15 55° ESE 21:29:45 10° NNE
Abrixas rocket 3.5 21:21:59 10° NW 21:25:01 34° NNE 21:27:31 14° ENE
Meteor 1-23 Rocket 4.2 21:19:39 10° N 21:25:14 69° E 21:30:48 10° SSE
Okean 2 4.0 21:23:00 10° N 21:26:47 36° ENE 21:29:21 18° SE
Cosmos 1331 Rocket 4.2 21:22:20 10° S 21:27:18 48° ESE 21:32:20 10° NNE
COSMOS 2428 3.5 21:28:27 10° SSE 21:33:17 29° ESE 21:38:09 10° NE
Cosmos 1975 4.2 21:33:35 19° E 21:34:03 20° E 21:36:59 10° NE
Cosmos 220 Rocket 4.1 21:33:52 10° NNW 21:38:11 77° WSW 21:42:04 13° SSE
CZ-4B DEB 3.3 21:42:43 31° E 21:43:02 32° ENE 21:45:39 10° N
Cosmos 883 Rocket 4.5 21:38:09 10° N 21:44:19 90° WSW 21:50:29 10° S
Meteor 1-5 Rocket 4.1 21:40:42 10° S 21:46:01 85° W 21:51:21 10° N
Cosmos 2333 Rocket 3.7 21:47:12 17° E 21:47:12 17° E 21:49:57 10° ENE
Cosmos 1025 Rocket 2.9 21:43:20 10° N 21:47:37 75° E 21:50:37 19° SSE
USA 186 4.0 21:47:57 10° SSW 21:50:52 26° W 21:53:46 10° NW
Cosmos 1536 4.0 21:47:21 10° SSW 21:51:15 44° WNW 21:55:09 10° N
NOSS 3-2 (A) 4.4 21:45:40 10° NNW 21:52:50 49° NE 21:57:46 23° ESE
Okean 1 Rocket 3.4 21:49:01 10° SSW 21:53:20 67° W 21:57:44 10° N
Cosmos 1939 Rocket 3.4 21:51:36 11° S 21:55:16 57° W 21:59:09 10° NNW
USA 238 DEB 3.8 21:49:24 10° NW 21:56:32 79° NE 22:01:04 25° SE
USA 238 3.8 21:49:30 10° NW 21:56:38 79° NE 22:01:09 25° SE
Tiangong 1 3.1 21:56:11 10° WSW 21:57:52 15° SSW 21:58:00 15° SSW
Cosmos 2237 Rocket 4.2 22:00:25 11° ENE 22:00:25 11° ENE 22:00:58 10° ENE
Cosmos 1244 Rocket 4.5 21:53:58 10° S 21:59:59 61° E 22:06:02 10° NNE
Helios 1A 3.1 22:01:08 22° S 22:03:47 78° WSW 22:08:03 10° NNW
ATLAS 3B R/B 2.6 21:59:20 10° NW 22:06:05 81° WSW 22:09:58 26° SSE
Cosmos 1238 Rocket 4.1 22:00:09 10° N 22:06:48 62° E 22:10:05 28° SSE
SL-8 R/B 3.6 22:02:40 10° WNW 22:07:28 81° SSW 22:09:13 39° SE
Cosmos 1818 3.6 22:02:53 10° SSW 22:08:09 55° ESE 22:13:29 10° NE
ERS-1 Rocket 2.9 22:06:57 32° SSE 22:09:16 68° ENE 22:14:16 10° N
SPOT 1/Viking Rocket 4.5 22:08:48 28° E 22:10:04 32° ENE 22:14:38 10° N
YAOGAN 6 3.5 22:10:08 21° SSW 22:12:08 45° W 22:15:32 10° NNW
Cosmos 1066 Rocket 4.2 22:07:59 10° N 22:13:23 61° ENE 22:15:33 36° SE
Okean 1-7 Rocket 4.1 22:09:28 10° NNW 22:13:56 60° W 22:16:59 20° S
ARGOS 3.3 22:12:31 36° SE 22:14:29 56° ENE 22:19:44 10° N
Molniya-1 3.8 22:12:35 10° NNW 22:15:27 73° NE 22:15:39 70° E
SL-08 RB Rocket 4.1 22:15:40 39° E 22:16:22 42° ENE 22:20:39 10° N
Resurs 01 Rocket 4.3 22:16:53 10° SW 22:19:40 16° W 22:22:29 10° NW
Meteor 1-29 2.9 22:16:42 10° N 22:20:07 80° WNW 22:20:46 55° SSW
BREEZE-M DEB (TANK) 3.3 22:18:47 10° WNW 22:20:46 22° NNW 22:20:55 22° N
BREEZE-M DEB (TANK) 3.9 22:21:47 10° W 22:25:25 61° NNW 22:38:09 10° ENE
YAOGAN 11 4.5 22:27:10 45° ENE 22:27:16 45° ENE 22:31:23 10° N
Cosmos 1743 3.8 22:29:25 32° NE 22:29:25 32° NE 22:31:48 10° NNE
Cosmos 2263 Rocket 4.2 22:24:11 10° NW 22:28:31 23° W 22:32:50 10° SSW
Aureole 3 Rocket 4.1 22:20:38 10° N 22:28:49 84° E 22:31:40 35° SSE
USA 245 3.6 22:31:48 61° ESE 22:32:20 68° ENE 22:36:19 10° N
SPOT 5 2.8 22:31:51 55° ESE 22:32:29 61° ENE 22:37:01 10° N
NOSS 3-2 (C) 4.1 22:26:00 10° NNW 22:33:25 63° NE 22:36:46 37° ESE
Cosmos 1844 Rocket 2.6 22:29:27 10° NNW 22:35:10 88° ENE 22:36:49 49° SSE
Lacrosse 5 3.6 22:32:15 10° W 22:36:50 33° NNW 22:41:25 10° NE
Cosmos 2278 Rocket 2.9 22:31:56 10° N 22:37:14 38° ENE 22:38:10 36° E
NOSS 0 Rocket 4.3 22:38:10 41° E 22:38:10 41° E 22:43:35 10° NE
MetOp-B 4.2 22:37:45 41° S 22:39:41 77° WSW 22:45:04 10° NNW
Cosmos 1626 Rocket 4.3 22:36:33 10° N 22:39:57 38° NE 22:39:57 38° NE
Helios 1B rocket 3.8 22:36:55 10° N 22:40:45 39° WNW 22:44:31 10° SW
Cosmos 1892 Rocket 4.0 22:40:42 10° NNW 22:45:02 58° W 22:45:55 48° SW
Meteor 1-21 4.3 22:40:47 10° N 22:46:20 55° ENE 22:46:52 53° E
H-2A R/B 1.8 22:46:54 67° ESE 22:47:22 73° ENE 22:52:20 10° N
Landsat 7 4.3 22:48:56 46° ENE 22:48:56 46° ENE 22:53:13 10° N
ATLAS 2AS CENTAUR R/B 4.3 22:43:32 10° WSW 22:50:52 41° NW 22:58:30 10° NNE
Cosmos 2219 Rocket 2.0 22:50:02 50° S 22:51:34 77° ESE 22:57:14 10° NNE
Cosmos 1745 Rocket 3.8 22:50:53 46° S 22:52:54 83° E 22:59:05 10° N
CENTAUR R/B 3.8 22:46:04 10° NNW 22:53:19 41° NE 22:56:35 30° E
Cosmos 1544 Rocket 4.2 22:57:19 43° SW 22:58:19 53° W 23:02:42 10° N
SeaSat 1 4.4 22:55:01 10° N 22:59:12 28° NW 23:03:21 10° WSW
Timation 1 Rocket 4.3 22:53:59 10° NNW 22:59:56 63° ENE 23:00:35 59° E
NOSS 3-4 (A) 3.3 22:56:25 19° SSW 23:01:02 78° ESE 23:07:31 10° NE
NOSS 3-4 (C) 3.3 22:57:10 24° SSW 23:01:08 77° ESE 23:07:37 10° NE
Abrixas rocket 4.4 22:58:38 10° WNW 23:00:06 24° WNW 23:00:06 24° WNW
Terra 2.5 23:04:46 42° NE 23:04:46 42° NE 23:08:34 10° N
SL-16 R/B 4.3 23:11:39 13° ENE 23:11:39 13° ENE 23:12:30 10° NE
Cosmos 2360 Rocket 4.4 23:04:03 10° WSW 23:08:36 24° NW 23:13:10 10° N
Cosmos 1455 Rocket 4.0 23:09:49 42° WSW 23:10:28 45° WNW 23:14:47 10° N
Cosmos 1386 Rocket 4.4 23:11:06 61° S 23:12:19 88° W 23:18:41 10° N
COSMOS 2428 3.8 23:11:54 10° SW 23:17:20 43° WNW 23:22:48 10° NNE
GP-B 4.0 23:13:17 10° N 23:16:18 42° NNE 23:16:18 42° NNE
Cosmos 1844 4.1 23:14:42 10° NW 23:20:13 52° WSW 23:20:44 51° SW
Cosmos 2333 Rocket 2.4 23:29:06 58° WSW 23:29:58 66° WNW 23:35:37 10° NNE
Cosmos 2237 Rocket 2.5 23:42:11 64° N 23:42:11 64° N 23:47:00 10° NNE
Cosmos 2369 Rocket 4.5 23:39:08 10° NNE 23:41:36 13° NE 23:42:42 12° NE
Cosmos 1980 4.0 23:48:45 63° NW 23:48:45 63° NW 23:54:10 10° NNE
H-2A R/B 3.8 23:57:37 30° N 23:57:37 30° N 23:59:55 10° NNW
